DECAYED
Showing default

KANOPUS-V 1, 38707 (Decayed)

Orbit data source: Space-Track

KANOPUS-V 1, 38707 was a payload satellite owned by VNIIEM (CIS) in LEO that was launched on Sun, 22 Jul 2012 UTC via a SOYUZ-FG launch vehicle from the Tyuratam Missile And Space Complex (TTMTR). Payload-class satellites include a variety of spacecraft equipped with specific instruments for various scientific and technological missions. These include communications satellites like Starlink; space stations such as the ISS; scientific satellites like the Hubble; Earth observation satellites from companies like Planet Labs, Umbra, and HawkEye 360; GPS; miniature CubeSats for education and research; and military/defense satellites.

Not visible in the next 10 days
Identifier
38707, 2012-039A
Orbit
Decayed
Last TLE update
8 months ago
Origin
Manufacturer
VNIIEM
Mission
Decayed Civil Imaging
Bus & Motor
KANOPUS, Unknown motor
Mass
400 kg wet, 400 kg dry
Launch date (UTC)
2012-07-22 (13 years ago)
Launch vehicle
SOYUZ-FG
Launch site
Tyuratam Missile And Space Complex (TTMTR)
Object type
Payload
Rocket body
Debris
Shape & HBR
Box + 2 Pan, 6 m
Radar Cross Section
1.665 m², Large (>1 m²)

Expand to show TLE details & history

TLE from 8 months ago
0 KANOPUS-V 1
1 38707U 12039A   24323.81578493  .08695980  26821-5  76758-3 0  9994
2 38707  97.4797 272.4019 0006631 150.5746 270.1213 16.39248839685412
Epoch: 2024-11-18T19:34Z
TLE epoch observation values (Epoch: 2024-11-18T19:34:43.817Z)
Latitude
59.8711°
Longitude
-92.61445°
Altitude
178.042 km
Speed
7.805 km/s
True Right ascension
17h 17m 36s
True Declination
59° 42' 30"
Sunlit
Object was in daylight at epoch
Visualization orbit readout
Visualization observer readout
Orbital elements
Apogee altitude
168.952 km
Perigee altitude
160.275 km
Semi-major axis
6,542.751 km
Eccentricity
0.00066
Inclination
97.4797°
RAAN
272.4019°
Arg. of periapsis
150.5746°
True anomaly
Unknown
Mean anomaly
270.1213°
Eccentric anomaly
Unknown
Mean motion
4.10112 °/min
Orbital period
87.78 mins
BSTAR
0.00076758
Loading maneuver chart data...
Loading SW <> Apogee altitude chart data...
Loading historical data...
Loading historical data...
Loading historical data...
Loading historical data...
Loading historical data...
Loading historical data...
Loading historical data...

KANOPUS-V 1 Visibility

Observer location: undefined°, undefined°

This satellite is decayed
Span
Click to sort rows by Start time (UTC) header in descending order
Start Az.
Max El. time (UTC)
Max El. Az.
Max El.
End time (UTC)
End Az.
|